Showing default

ICEYE-X26, 56961

Orbit data source: Space-Track

ICEYE-X26, 56961 is a payload satellite owned by ICEYE US (US) in SSO that was launched on Mon, 12 Jun 2023 UTC via an FALCON 9 launch vehicle from the Air Force Western Test Range (AFWTR). Payload-class satellites include a variety of spacecraft equipped with specific instruments for various scientific and technological missions. These include communications satellites like Starlink; space stations such as the ISS; scientific satellites like the Hubble; Earth observation satellites from companies like Planet Labs, Umbra, and HawkEye 360; GPS; miniature CubeSats for education and research; and military/defense satellites.

Loading next visibility...
Identifier
56961, 2023-084AF
Orbit
SSO
Last TLE update
7 hours ago
Origin
Manufacturer
ICEYE
Mission
Operational Commercial Radar Imaging
Bus & Motor
ICEYE, Unknown motor
Mass
90 kg wet, 89 kg dry
Launch date (UTC)
2023-06-12 (2 years ago)
Launch vehicle
FALCON 9
Launch site
Air Force Western Test Range (AFWTR)
Object type
Payload
Rocket body
Debris
Shape & HBR
Box + 1 Pan, 3.25 m
Radar Cross Section
0.825 m², Medium (>0.1 m² and < 1m²)

Expand to show TLE details & history

TLE from 7 hours ago
0 ICEYE-X26
1 56961U 23084AF  25182.89081989  .00026928  00000-0  49211-3 0  9991
2 56961  97.5638 316.9024 0002474 102.7150 257.4378 15.49363054114401
Epoch: 2025-07-01T21:22Z
TLE epoch observation values (Epoch: 2025-07-01T21:22:46.838Z)
Latitude
0.00006°
Longitude
76.02746°
Altitude
422.08 km
Speed
7.658 km/s
True Right ascension
21h 07m 36s
True Declination
0° 00' 00"
Sunlit
Object was in full shadow at epoch
Visualization orbit readout
Latitude
71.87976°
Longitude
52.51389°
Altitude
429.467 km
Speed
7.661 km/s
Apparent Right ascension
01h 52m 40s
Apparent Declination
29° 16' 00"
Sunlit
Object is in daylight
Visualization observer readout
Local Sidereal Time
15:35:01
Azimuth
23.184° NE
Elevation
-16.843°
Doppler factor
1
Orbital elements
Apogee altitude
417.203 km
Perigee altitude
413.841 km
Semi-major axis
6,793.659 km
Eccentricity
0.00025
Inclination
97.5638°
RAAN
316.9024°
Arg. of periapsis
102.715°
True anomaly
Unknown
Mean anomaly
257.4378°
Eccentric anomaly
Unknown
Mean motion
3.87603 °/min
Orbital period
92.88 mins
BSTAR
0.00049211
Loading maneuver chart data...
Loading SW <> Apogee altitude chart data...
Loading historical data...
Loading historical data...
Loading historical data...
Loading historical data...
Loading historical data...
Loading historical data...
Loading historical data...

ICEYE-X26 Visibility forecast

Observer location: undefined°, undefined°

Span
Click to sort rows by Start time (UTC) header in descending order
Start Az.
Max El. time (UTC)
Max El. Az.
Max El.
End time (UTC)
End Az.
4 mins2025-07-02 08:22:42.841Z119.085° SE2025-07-02 08:24:42.841Z70.128° E22.143°2025-07-02 08:26:42.841Z22.524° NE
|